W5TTY Weather Reports


time (UTC)temp
C
wind
direction
speed
KPH
gust
KPH
rain 1hr
cm
rain 24hr
cm
rain mn
cm
humidity
%
barometer
mb
20260506235328 18 329 11.3 24.1 0.00 0.00 0.00 85 1011.3
20260506234841 18 348 16.1 24.1 0.00 0.00 0.00 85 1011.2
20260506234326 18 298 12.9 22.5 0.00 0.00 0.00 85 1011.1
20260506233831 18 28 11.3 25.7 0.00 0.00 0.00 85 1011.2
20260506233319 18 333 16.1 25.7 0.00 0.00 0.00 85 1011.2
20260506232828 18 355 17.7 25.7 0.00 0.00 0.00 85 1011.0
20260506232332 18 263 17.7 24.1 0.00 0.00 0.00 85 1011.1
20260506231840 19 360 12.9 24.1 0.00 0.00 0.00 85 1011.1
20260506231331 19 327 16.1 24.1 0.00 0.00 0.00 85 1011.0
20260506230835 19 355 16.1 24.1 0.00 0.00 0.00 85 1011.1
20260506230343 19 17 9.7 20.9 0.00 0.00 0.00 86 1011.1
20260506225829 19 355 12.9 20.9 0.00 0.00 0.00 86 1011.0
20260506225333 20 325 12.9 20.9 0.00 0.00 0.00 86 1011.0
20260506224822 20 317 9.7 29.0 0.00 0.00 0.00 86 1010.9
20260506224328 20 336 12.9 27.4 0.00 0.00 0.00 86 1010.9
20260506223829 20 338 8.0 29.0 0.00 0.00 0.00 86 1010.9
20260506223336 20 355 11.3 29.0 0.00 0.00 0.00 86 1010.9
20260506222824 20 355 14.5 25.7 0.00 0.00 0.00 86 1010.8
20260506222326 20 340 14.5 25.7 0.00 0.00 0.00 86 1010.8
20260506221839 20 323 14.5 25.7 0.00 0.00 0.00 86 1010.8
20260506221318 21 317 12.9 24.1 0.00 0.00 0.00 86 1010.7
20260506220850 21 292 8.0 20.9 0.00 0.00 0.00 87 1010.6
20260506220336 21 279 9.7 24.1 0.00 0.00 0.00 87 1010.7
20260506215846 21 294 12.9 25.7 0.00 0.00 0.00 87 1010.7
20260506215329 21 321 14.5 25.7 0.00 0.00 0.00 86 1010.5
20260506214818 21 277 12.9 27.4 0.00 0.00 0.00 87 1010.5
20260506214346 21 330 12.9 27.4 0.00 0.00 0.00 87 1010.4
20260506213851 21 11 14.5 30.6 0.00 0.00 0.00 87 1010.5
20260506213337 21 309 14.5 30.6 0.00 0.00 0.00 87 1010.5
20260506212825 21 307 14.5 25.7 0.00 0.00 0.00 87 1010.4
20260506212327 21 347 12.9 25.7 0.00 0.00 0.00 87 1010.6
20260506211833 21 304 11.3 27.4 0.00 0.00 0.00 87 1010.7
20260506211346 21 328 16.1 27.4 0.00 0.00 0.00 87 1010.6
20260506210831 21 14 16.1 24.1 0.00 0.00 0.00 87 1010.6
20260506210339 21 317 12.9 25.7 0.00 0.00 0.00 87 1010.5
20260506205828 21 348 14.5 25.7 0.00 0.00 0.00 87 1010.6
20260506205350 22 294 11.3 27.4 0.00 0.00 0.00 87 1010.5
20260506204817 22 346 16.1 27.4 0.00 0.00 0.00 87 1010.4
20260506204347 22 317 11.3 25.7 0.00 0.00 0.00 87 1010.4
20260506203839 22 321 14.5 22.5 0.00 0.00 0.00 87 1010.5
20260506203322 22 360 16.1 20.9 0.00 0.00 0.00 87 1010.4
20260506202826 22 323 12.9 22.5 0.00 0.00 0.00 88 1010.3
20260506202329 23 300 11.3 22.5 0.00 0.00 0.00 87 1010.2
20260506201837 23 322 9.7 22.5 0.00 0.00 0.00 88 1010.2
20260506201321 23 327 9.7 19.3 0.00 0.00 0.00 88 1010.3
20260506200835 23 315 4.8 17.7 0.00 0.00 0.00 88 1010.3
20260506200343 23 336 8.0 22.5 0.00 0.00 0.00 88 1010.2
20260506195829 23 329 9.7 22.5 0.00 0.00 0.00 88 1010.3
20260506195336 23 317 6.4 19.3 0.00 0.00 0.00 88 1010.2
20260506194843 23 305 8.0 19.3 0.00 0.00 0.00 88 1010.2
20260506194327 24 298 11.3 19.3 0.00 0.00 0.00 88 1010.3
20260506193836 24 344 8.0 19.3 0.00 0.00 0.00 89 1010.3
20260506193326 23 325 4.8 14.5 0.00 0.00 0.00 89 1010.3
20260506192900 23 348 4.8 12.9 0.00 0.00 0.00 89 1010.3
20260506192346 23 350 4.8 12.9 0.00 0.00 0.00 88 1010.2
20260506191829 23 59 1.6 6.4 0.00 0.00 0.00 89 1010.1
20260506191332 22 59 1.6 11.3 0.00 0.00 0.00 89 1010.1
20260506190822 22 29 6.4 11.3 0.00 0.00 0.00 89 1010.1
20260506190325 22 71 6.4 12.9 0.00 0.00 0.00 89 1010.1
20260506185828 22 76 4.8 11.3 0.00 0.00 0.00 89 1010.0
20260506185403 21 98 4.8 17.7 0.00 0.00 0.00 89 1010.0
20260506184828 21 69 8.0 17.7 0.00 0.00 0.00 89 1010.0
20260506184332 21 84 9.7 16.1 0.00 0.00 0.00 89 1010.0
20260506183819 21 125 6.4 16.1 0.00 0.00 0.00 89 1010.1
20260506183326 21 115 3.2 16.1 0.00 0.00 0.00 89 1010.1
20260506182830 20 84 6.4 17.7 0.00 0.00 0.00 89 1010.1
20260506182335 20 73 11.3 17.7 0.00 0.00 0.00 89 1010.1
20260506181821 20 50 6.4 17.7 0.00 0.00 0.00 89 1010.4
20260506181326 19 84 11.3 17.7 0.00 0.00 0.00 89 1010.7
20260506180836 19 77 6.4 16.1 0.00 0.00 0.00 89 1010.7
20260506180343 18 112 6.4 20.9 0.00 0.00 0.00 89 1010.8
20260506175836 18 57 9.7 20.9 0.00 0.00 0.00 89 1010.8
20260506175339 18 42 9.7 22.5 0.00 0.00 0.00 89 1010.9
20260506174844 18 61 12.9 24.1 0.00 0.00 0.00 89 1011.0
20260506174327 17 67 16.1 27.4 0.00 0.00 0.00 89 1011.0
20260506173834 17 51 11.3 24.1 0.00 0.00 0.00 89 1011.1
20260506173321 17 26 12.9 29.0 0.00 0.00 0.00 88 1011.2
20260506172846 17 349 17.7 30.6 0.00 0.00 0.00 88 1011.2
20260506172337 17 30 19.3 32.2 0.00 0.00 0.00 88 1011.3
20260506171842 17 355 17.7 32.2 0.00 0.00 0.00 88 1011.5
20260506171318 17 9 17.7 25.7 0.00 0.00 0.00 88 1011.9
20260506170830 16 323 12.9 30.6 0.00 0.00 0.00 88 1012.2
20260506170337 16 340 14.5 30.6 0.00 0.00 0.00 88 1012.5
20260506165824 17 342 16.1 29.0 0.00 0.00 0.00 88 1012.6
20260506165348 17 313 14.5 30.6 0.00 0.00 0.00 88 1012.9
20260506164828 17 360 20.9 37.0 0.00 0.00 0.00 87 1013.0
20260506164333 17 337 22.5 37.0 0.00 0.00 0.00 87 1013.0
20260506163818 17 333 19.3 40.2 0.00 0.00 0.00 88 1012.9
20260506163347 18 321 24.1 40.2 0.00 0.00 0.00 87 1012.9
20260506162829 18 275 20.9 32.2 0.00 0.00 0.00 88 1013.0
20260506162333 18 288 19.3 32.2 0.00 0.00 0.00 88 1012.6
20260506161818 19 317 14.5 27.4 0.00 0.00 0.00 87 1012.4
20260506161323 20 316 12.9 29.0 0.00 0.00 0.00 87 1012.4
20260506160825 21 317 16.1 33.8 0.00 0.00 0.00 86 1012.2
20260506160328 22 308 17.7 38.6 0.00 0.00 0.00 86 1012.1
20260506155832 24 339 24.1 38.6 0.00 0.00 0.00 86 1011.7
20260506155405 25 322 8.0 24.1 0.00 0.00 0.00 89 1011.1
20260506154827 25 186 3.2 6.4 0.00 0.00 0.00 89 1010.7
20260506154330 25 138 3.2 6.4 0.00 0.00 0.00 89 1010.5
20260506153818 25 125 0.0 6.4 0.00 0.00 0.00 89 1010.4
20260506153346 25 125 3.2 6.4 0.00 0.00 0.00 89 1010.3
20260506152828 25 118 1.6 4.8 0.00 0.00 0.00 89 1010.4
20260506152334 25 118 1.6 4.8 0.00 0.00 0.00 89 1010.4
20260506151837 25 193 1.6 9.7 0.00 0.00 0.00 88 1010.3
20260506151342 25 193 3.2 9.7 0.00 0.00 0.00 88 1010.4
20260506150826 25 163 1.6 8.0 0.00 0.00 0.00 88 1010.5
20260506150332 25 155 1.6 4.8 0.00 0.00 0.00 89 1010.3
20260506145838 25 153 1.6 4.8 0.00 0.00 0.00 88 1010.2
20260506145322 24 153 1.6 4.8 0.00 0.00 0.00 88 1010.2
20260506144828 24 153 1.6 3.2 0.00 0.00 0.00 88 1010.3
20260506144334 24 153 1.6 3.2 0.00 0.00 0.00 88 1010.4
20260506143821 24 153 0.0 4.8 0.00 0.00 0.00 88 1010.2
20260506143329 24 153 1.6 4.8 0.00 0.00 0.00 88 1010.5
20260506142833 24 150 0.0 8.0 0.00 0.00 0.00 88 1010.3
20260506142407 24 151 1.6 8.0 0.00 0.00 0.00 88 1010.1
20260506141829 24 151 3.2 9.7 0.00 0.00 0.00 88 1009.9
20260506141335 24 153 4.8 9.7 0.00 0.00 0.00 88 1009.9
20260506140821 24 154 3.2 8.0 0.00 0.00 0.00 88 1009.9
20260506140327 24 157 4.8 8.0 0.00 0.00 0.00 88 1009.8
20260506135827 24 175 1.6 6.4 0.00 0.00 0.00 88 1009.7
20260506135334 24 175 3.2 6.4 0.00 0.00 0.00 88 1009.7
20260506134822 24 175 0.0 3.2 0.00 0.00 0.00 88 1009.7
20260506134325 24 177 1.6 4.8 0.00 0.00 0.00 88 1009.8
20260506133829 24 177 3.2 6.4 0.00 0.00 0.00 88 1009.8
20260506133333 24 177 3.2 6.4 0.00 0.00 0.00 88 1009.7
20260506132845 24 184 1.6 4.8 0.00 0.00 0.00 88 1009.6
20260506132327 23 184 0.0 4.8 0.00 0.00 0.00 87 1009.6
20260506131854 23 184 1.6 4.8 0.00 0.00 0.00 87 1009.6
20260506131340 23 184 1.6 4.8 0.00 0.00 0.00 87 1009.5
20260506130824 23 185 0.0 3.2 0.00 0.00 0.00 87 1009.6
20260506130329 23 185 0.0 3.2 0.00 0.00 0.00 87 1009.6
20260506125842 23 185 1.6 3.2 0.00 0.00 0.00 87 1009.6
20260506125349 23 185 0.0 3.2 0.00 0.00 0.00 87 1009.6
20260506124835 23 185 0.0 3.2 0.00 0.00 0.00 87 1009.5
20260506124320 23 185 1.6 3.2 0.00 0.00 0.00 87 1009.4
20260506123823 23 185 1.6 3.2 0.00 0.00 0.00 87 1009.3
20260506123331 23 186 1.6 4.8 0.00 0.00 0.00 87 1009.3
20260506122839 23 186 1.6 4.8 0.00 0.00 0.00 87 1009.1
20260506122323 23 186 0.0 3.2 0.00 0.00 0.00 87 1009.2
20260506121852 23 186 0.0 0.0 0.00 0.00 0.00 87 1009.2
20260506121318 23 186 0.0 3.2 0.00 0.00 0.00 87 1009.2
20260506120820 23 186 1.6 3.2 0.00 0.00 0.00 87 1009.3
20260506120351 23 186 0.0 3.2 0.00 0.00 0.00 87 1009.3
20260506115834 23 186 0.0 3.2 0.00 0.00 0.00 87 1009.3
20260506115317 23 186 0.0 3.2 0.00 0.00 0.00 87 1009.2
20260506114819 23 186 0.0 6.4 0.00 0.00 0.00 87 1009.3
20260506114322 23 186 1.6 8.0 0.00 0.00 0.00 87 1009.3
20260506113834 23 184 3.2 8.0 0.00 0.00 0.00 87 1009.2
20260506113341 23 178 3.2 6.4 0.00 0.00 0.00 87 1009.1
20260506112822 23 164 0.0 8.0 0.00 0.00 0.00 87 1009.0
20260506112322 23 161 3.2 8.0 0.00 0.00 0.00 87 1009.0
20260506111827 23 193 3.2 6.4 0.00 0.00 0.00 87 1008.9
20260506111341 23 199 1.6 6.4 0.00 0.00 0.00 87 1008.9
20260506110847 23 199 1.6 9.7 0.00 0.00 0.00 87 1008.9
20260506110350 23 199 1.6 9.7 0.00 0.00 0.00 87 1008.8
20260506032832 25 205 4.8 17.7 0.00 0.00 0.00 80 1007.5
20260506032405 25 167 8.0 17.7 0.00 0.00 0.00 80 1007.5
20260506031831 25 175 9.7 16.1 0.00 0.00 0.00 80 1007.4
20260506031340 25 175 6.4 16.1 0.00 0.00 0.00 80 1007.4
20260506030828 25 165 6.4 12.9 0.00 0.00 0.00 80 1007.3
20260506030332 25 139 6.4 20.9 0.00 0.00 0.00 80 1007.3
20260506025829 25 164 8.0 20.9 0.00 0.00 0.00 80 1007.2
20260506025328 25 140 6.4 16.1 0.00 0.00 0.00 80 1007.1
20260506024842 25 136 8.0 16.1 0.00 0.00 0.00 80 1007.0
20260506024329 25 159 8.0 16.1 0.00 0.00 0.00 79 1007.0
20260506023832 25 149 4.8 19.3 0.00 0.00 0.00 80 1006.9
20260506023320 25 138 8.0 17.7 0.00 0.00 0.00 79 1006.8
20260506022833 25 176 4.8 19.3 0.00 0.00 0.00 79 1006.8
20260506022318 26 164 6.4 19.3 0.00 0.00 0.00 79 1006.8
20260506021851 26 157 6.4 16.1 0.00 0.00 0.00 79 1006.7
20260506021332 26 223 6.4 16.1 0.00 0.00 0.00 79 1006.6
20260506020844 26 194 4.8 14.5 0.00 0.00 0.00 79 1006.7
20260506020328 26 165 6.4 12.9 0.00 0.00 0.00 79 1006.7
20260506015845 26 182 4.8 14.5 0.00 0.00 0.00 79 1006.7
20260506015329 26 178 6.4 14.5 0.00 0.00 0.00 79 1006.6
20260506014836 26 171 4.8 12.9 0.00 0.00 0.00 79 1006.5
20260506014320 26 186 6.4 12.9 0.00 0.00 0.00 79 1006.5
20260506013834 26 182 3.2 8.0 0.00 0.00 0.00 79 1006.6
20260506013342 26 173 4.8 17.7 0.00 0.00 0.00 78 1006.4
20260506012834 26 184 4.8 17.7 0.00 0.00 0.00 78 1006.4
20260506012341 26 163 6.4 19.3 0.00 0.00 0.00 79 1006.2
20260506011832 26 179 6.4 14.5 0.00 0.00 0.00 78 1006.2
20260506011358 26 199 4.8 14.5 0.00 0.00 0.00 78 1006.1
20260506010831 26 181 8.0 17.7 0.00 0.00 0.00 78 1006.0
20260506010319 26 214 8.0 19.3 0.00 0.00 0.00 78 1006.0
20260506005828 26 150 11.3 19.3 0.00 0.00 0.00 78 1005.8
20260506005339 26 196 8.0 22.5 0.00 0.00 0.00 78 1005.6
20260506004828 26 187 9.7 22.5 0.00 0.00 0.00 78 1005.5
20260506004326 26 169 11.3 30.6 0.00 0.00 0.00 78 1005.5
20260506003843 27 186 9.7 30.6 0.00 0.00 0.00 78 1005.3
20260506003328 27 160 9.7 27.4 0.00 0.00 0.00 78 1005.2
20260506002834 27 223 8.0 24.1 0.00 0.00 0.00 78 1005.2
20260506002326 27 173 12.9 22.5 0.00 0.00 0.00 78 1005.2
20260506001835 27 161 11.3 27.4 0.00 0.00 0.00 78 1005.3
20260506001348 27 171 11.3 27.4 0.00 0.00 0.00 78 1005.3
20260506000835 27 205 11.3 19.3 0.00 0.00 0.00 78 1005.3
20260506000323 27 199 8.0 16.1 0.00 0.00 0.00 78 1005.3
20260505235836 27 200 6.4 20.9 0.00 0.00 0.00 78 1005.1